Wind_Speed
44 46 46 46 48 48 50 52 55 55 57 60 60 61 63 63 65 60 65 64 63 66 65 64 67 63 63 61 53 41 37 35 39 46 54 63 67 69 73 81 83 87 87 86 85
47 44 46 48 50 52 52 54 55 56 58 59 60 62 57 58 57 59 62 61 64 66 68 66 67 63 57 58 53 44 40 34 35 41 43 60 65 68 73 83 87 88 88 87 85
49 48 48 47 49 52 54 55 54 55 57 57 62 62 64 66 60 64 64 66 68 63 61 60 58 57 59 58 52 48 41 36 39 41 45 52 67 67 72 81 86 91 93 90 88
46 49 48 51 49 51 54 58 57 57 58 61 65 66 65 69 59 62 67 69 71 65 60 59 60 57 57 56 51 50 45 40 44 42 43 48 64 73 76 84 88 88 94 94 92
49 50 47 52 53 59 58 57 61 62 62 62 65 67 63 61 67 69 73 71 70 67 63 60 60 60 55 53 51 49 48 44 42 41 43 46 58 75 85 88 85 87 92 97 95
52 51 51 56 57 58 59 59 59 62 62 62 64 67 66 69 66 71 77 73 71 62 64 64 62 57 56 50 49 49 47 45 40 42 45 43 55 66 80 88 89 91 92 95 96
54 55 55 61 62 59 57 59 61 63 59 57 57 60 54 58 65 71 80 73 66 65 64 60 59 56 51 49 46 48 46 41 41 42 45 46 48 61 67 77 88 90 94 94 95
57 55 62 66 59 58 61 60 64 64 65 67 67 64 57 63 68 70 84 66 65 64 60 59 57 53 53 52 50 48 46 42 39 40 44 43 49 51 57 67 76 87 88 96 95
58 61 61 65 63 63 66 63 60 63 61 65 68 66 66 69 69 72 86 70 68 63 62 58 59 58 53 50 50 48 47 46 39 39 40 45 44 38 47 57 67 72 82 85 96
57 63 62 68 64 65 63 61 60 65 68 65 67 71 77 69 72 88 80 69 69 69 66 65 67 65 58 54 49 48 47 47 42 41 39 38 42 38 41 52 61 67 72 78 84
67 70 67 70 67 62 61 66 68 70 71 72 71 70 69 68 84 93 74 70 73 72 70 69 71 71 66 61 52 50 48 46 44 43 42 35 37 37 41 48 57 61 68 75 80
70 74 75 72 70 66 65 73 74 73 73 62 69 76 71 86 95 85 75 73 75 75 75 76 76 72 69 63 57 49 50 48 43 45 46 38 33 36 37 46 53 58 63 68 75
73 73 74 70 70 70 71 78 76 75 70 65 76 67 88 94 90 79 74 72 74 79 80 79 79 76 73 67 63 56 50 49 44 44 46 44 36 33 36 40 49 57 61 64 68
74 77 76 73 74 72 79 79 79 78 70 69 71 82 93 98 87 77 76 77 77 81 82 82 83 80 74 69 62 60 56 51 48 44 44 45 36 37 35 37 45 56 61 64 64
78 75 77 75 78 83 83 81 81 78 73 69 78 90 93 96 80 76 77 79 81 81 83 85 82 82 77 74 72 63 62 56 51 45 44 47 42 36 41 39 42 52 62 66 65
79 81 82 83 84 86 87 86 84 84 75 85 95 92 96 81 79 79 81 81 82 85 85 86 86 83 79 78 78 74 64 61 56 50 43 50 45 35 41 46 45 48 59 67 69
79 81 81 87 87 89 91 86 89 92 93 96 99 89 77 78 79 82 83 85 85 86 87 87 88 86 83 84 86 78 68 63 61 55 50 49 50 43 43 47 50 50 54 64 71
79 83 89 89 91 92 91 93 94 98 95 104 90 83 82 82 83 85 86 87 87 90 89 87 85 88 88 87 90 78 68 62 64 59 53 51 47 49 49 51 54 56 57 60 68
85 88 93 93 92 91 93 96 99 99 105 103 87 86 86 88 89 90 89 87 91 90 90 89 85 88 89 95 86 72 67 64 63 61 58 53 51 52 55 56 58 60 62 64 67
92 94 97 96 97 101 101 97 105 108 95 88 86 88 90 92 94 93 90 91 89 89 90 90 91 90 97 92 79 72 67 64 63 63 60 54 54 57 58 62 63 63 66 69 72
98 98 100 102 104 103 103 107 106 94 90 89 91 93 95 95 97 95 95 93 90 92 92 95 93 97 98 87 77 72 67 65 65 65 63 61 56 59 62 64 68 69 70 72 75
103 104 102 104 106 109 113 103 95 93 94 95 96 97 98 99 98 98 96 94 94 95 97 99 101 100 94 82 75 72 70 68 69 67 67 68 58 62 66 68 71 74 76 77 79
106 107 110 111 113 108 101 97 97 97 98 100 102 101 99 100 101 98 95 96 97 100 102 107 102 97 87 80 75 73 70 71 72 71 69 74 64 67 71 75 77 79 82 82 83
114 115 117 114 110 104 105 102 101 102 103 105 105 102 101 101 99 97 96 99 103 107 110 106 100 93 86 80 75 73 72 74 75 75 77 74 73 72 78 81 83 85 84 84 86
122 120 116 110 106 107 107 105 105 106 107 105 100 100 99 96 99 99 101 105 111 112 106 100 95 90 84 81 77 73 75 75 77 81 80 75 76 76 84 85 84 84 86 84 86
114 111 110 110 110 111 110 108 109 109 105 99 97 98 97 99 102 104 107 114 111 103 98 96 90 88 80 81 79 73 73 77 78 81 79 81 72 85 86 85 85 86 87 88 87
116 115 115 112 112 113 113 111 108 104 101 97 98 100 100 101 107 108 112 103 98 96 94 90 88 83 76 78 76 65 75 75 78 83 80 78 77 81 84 89 90 89 86 83 86
Wind_Direction
300 301 299 301 304 305 305 305 305 305 305 304 303 304 308 307 304 308 315 315 310 311 311 312 311 314 314 314 312 310 303 289 254 250 241 241 241 237 233 234 233 233 232 233 233
297 297 297 302 306 308 304 303 304 306 303 301 301 301 306 312 308 308 314 322 320 314 309 311 313 312 312 316 313 312 306 293 266 262 254 237 236 237 232 231 232 233 232 232 231
300 299 296 301 306 304 301 300 301 302 303 299 301 303 302 309 314 321 315 321 324 318 312 313 318 315 314 316 314 311 311 298 289 268 262 245 232 235 231 230 232 232 231 231 230
299 302 303 303 307 307 303 301 303 303 302 298 300 299 304 301 308 313 323 318 321 319 314 310 311 311 310 314 315 311 312 302 300 275 268 253 234 231 231 228 229 230 230 230 231
300 301 303 305 305 308 306 301 302 302 303 300 301 302 306 303 307 318 324 316 318 318 314 316 314 313 310 312 315 314 308 305 300 288 274 265 241 231 230 228 229 231 228 229 231
298 301 303 307 305 306 302 299 303 304 302 304 305 302 296 303 303 317 318 316 317 316 317 315 313 314 313 314 314 312 305 303 301 291 280 274 254 238 234 228 229 228 230 229 229
301 303 306 305 303 302 300 299 299 301 297 305 307 305 303 315 307 319 324 319 317 318 320 317 313 313 314 314 309 308 305 306 308 295 282 278 260 246 239 234 230 229 228 229 229
297 298 299 304 300 302 298 298 299 299 297 300 305 307 306 309 311 313 325 318 320 318 317 320 317 316 313 314 313 312 308 309 307 299 287 280 269 253 245 238 236 233 230 229 230
297 300 299 301 301 297 301 298 301 308 300 304 304 302 305 306 309 313 321 320 320 320 323 324 323 322 322 319 316 310 306 305 306 302 287 284 275 261 247 241 238 235 235 232 231
295 303 296 299 297 298 300 301 299 313 306 307 304 301 305 305 314 321 319 316 320 319 325 329 328 324 323 321 317 313 306 301 302 301 296 284 282 266 246 241 237 234 233 233 231
291 291 295 294 297 298 300 303 302 304 311 305 302 304 308 307 316 320 317 317 319 321 325 326 325 324 320 318 315 312 310 300 301 298 296 289 279 272 249 238 236 234 233 231 230
289 293 292 293 294 294 300 309 307 302 311 312 302 308 310 315 316 316 313 317 319 319 322 322 320 321 319 317 314 310 309 303 300 295 294 292 280 274 254 242 236 234 234 233 233
287 290 292 295 295 297 297 306 304 306 306 309 306 305 311 313 314 310 311 316 317 320 319 318 318 318 318 315 316 315 304 302 297 291 289 290 283 270 263 247 240 234 235 236 237
290 286 291 297 298 298 303 302 301 303 308 307 302 304 310 312 312 311 310 313 314 315 316 315 314 315 314 315 314 312 305 299 296 290 287 284 281 271 259 253 241 235 233 234 237
290 287 291 298 296 297 302 303 304 305 308 303 302 303 306 309 308 310 310 311 312 312 313 312 313 312 312 317 316 312 304 299 290 287 280 280 275 263 258 250 243 236 234 235 235
288 286 287 294 297 298 300 301 305 309 301 301 304 304 304 305 307 309 310 310 311 311 310 310 313 313 311 314 315 313 305 297 295 284 277 272 271 265 255 250 245 240 237 235 238
287 286 290 293 296 297 299 304 307 305 299 301 302 303 303 304 306 308 308 308 308 308 306 307 310 311 312 314 315 311 306 297 294 288 277 269 270 263 257 250 247 242 238 238 237
284 287 292 293 292 296 301 304 302 298 294 299 301 302 303 305 305 306 305 306 306 305 303 305 309 310 311 313 313 309 304 296 288 288 283 273 267 263 258 250 245 242 239 236 237
285 287 288 293 295 299 300 297 295 294 295 300 299 301 304 305 304 304 304 304 303 303 302 302 306 307 310 311 308 303 298 293 289 287 284 277 267 262 260 256 249 244 241 240 235
287 288 290 294 296 295 296 294 292 296 297 298 300 302 303 302 302 302 303 303 301 303 302 304 305 307 309 308 302 297 294 291 286 283 280 276 269 262 258 256 254 249 243 241 240
286 290 291 290 292 293 290 289 292 294 296 298 300 301 300 299 301 300 302 300 301 302 302 305 305 307 308 303 297 293 289 285 282 281 279 275 267 260 258 256 253 252 248 244 240
283 284 286 287 287 286 288 290 291 293 295 298 298 298 298 298 299 298 299 299 300 301 304 304 304 307 303 297 292 287 286 282 280 277 275 274 268 262 257 254 252 251 249 245 243
282 283 285 285 285 287 289 289 291 293 295 296 297 296 296 297 296 297 298 299 300 302 304 304 304 303 299 293 289 285 282 280 278 277 274 270 267 261 260 256 252 249 247 247 245
279 282 285 286 286 285 287 290 292 293 293 295 296 295 294 295 296 296 298 301 302 302 304 302 301 298 295 290 285 283 282 278 278 275 272 270 267 261 260 258 256 254 251 248 247
279 282 283 283 284 286 288 290 290 291 293 293 294 293 294 294 295 299 301 303 303 303 301 298 297 295 292 289 286 284 281 280 277 274 272 269 269 268 264 261 261 261 260 257 252
280 281 281 283 285 286 287 289 289 290 291 291 291 292 292 295 298 302 302 304 301 299 296 295 295 293 292 290 287 286 287 281 279 276 275 272 273 266 267 269 266 262 258 257 256
279 280 281 283 285 286 287 288 287 287 288 289 290 291 293 299 302 301 303 300 297 295 294 294 293 291 290 287 287 292 282 284 281 276 276 276 272 269 267 266 265 264 265 262 257
Height
10702 10699 10696 10693 10689 10686 10683 10679 10675 10670 10666 10660 10654 10649 10645 10638 10632 10627 10621 10613 10605 10597 10589 10583 10576 10569 10561 10555 10551 10544 10538 10535 10534 10532 10532 10542 10548 10556 10565 10570 10581 10589 10599 10608 10622
10694 10691 10687 10685 10681 10677 10674 10670 10665 10662 10657 10651 10645 10640 10635 10630 10624 10618 10610 10603 10595 10586 10577 10570 10564 10558 10551 10544 10537 10534 10530 10525 10521 10522 10520 10525 10531 10541 10549 10553 10563 10572 10584 10592 10604
10686 10682 10678 10675 10672 10669 10665 10662 10657 10652 10648 10643 10637 10631 10627 10622 10616 10607 10601 10594 10584 10575 10567 10559 10552 10546 10539 10533 10527 10521 10519 10514 10511 10510 10509 10508 10515 10523 10530 10536 10541 10553 10564 10575 10586
10677 10674 10671 10667 10663 10660 10656 10653 10648 10642 10638 10632 10627 10622 10617 10611 10605 10598 10590 10581 10572 10563 10555 10547 10540 10535 10529 10524 10517 10510 10507 10505 10499 10497 10495 10494 10499 10506 10510 10511 10518 10532 10546 10557 10567
10668 10665 10661 10658 10654 10650 10647 10643 10638 10633 10627 10621 10616 10612 10607 10601 10594 10587 10578 10570 10561 10552 10544 10537 10529 10523 10519 10513 10506 10499 10495 10494 10489 10485 10483 10481 10480 10486 10485 10493 10509 10518 10528 10540 10551
10658 10654 10651 10648 10644 10639 10636 10632 10627 10621 10616 10610 10604 10600 10593 10589 10582 10573 10565 10557 10549 10541 10534 10526 10518 10513 10507 10501 10496 10489 10485 10483 10479 10473 10469 10470 10464 10468 10472 10483 10491 10502 10512 10523 10537
10647 10644 10640 10637 10633 10628 10624 10620 10615 10610 10605 10599 10593 10586 10581 10575 10569 10561 10553 10545 10537 10531 10522 10515 10507 10501 10496 10491 10486 10479 10472 10469 10468 10462 10458 10455 10449 10453 10461 10472 10477 10486 10498 10509 10523
10637 10633 10629 10626 10621 10617 10613 10608 10602 10598 10593 10588 10582 10575 10569 10562 10555 10548 10542 10535 10528 10520 10512 10506 10498 10492 10487 10481 10474 10469 10460 10456 10456 10453 10447 10445 10435 10445 10453 10458 10465 10474 10485 10495 10506
10625 10621 10618 10614 10610 10605 10601 10596 10592 10588 10582 10576 10570 10562 10555 10548 10542 10535 10531 10522 10518 10510 10503 10494 10488 10481 10476 10471 10466 10458 10452 10446 10446 10443 10438 10431 10430 10440 10441 10444 10451 10459 10472 10482 10493
10611 10609 10606 10602 10598 10593 10588 10584 10580 10575 10570 10563 10556 10548 10541 10536 10530 10524 10516 10510 10504 10499 10490 10482 10475 10469 10466 10461 10457 10450 10443 10437 10435 10432 10427 10424 10424 10427 10428 10432 10437 10446 10455 10464 10476
10599 10596 10594 10590 10585 10580 10576 10572 10568 10563 10556 10549 10543 10536 10527 10522 10517 10510 10503 10498 10490 10486 10478 10472 10465 10459 10454 10449 10445 10441 10435 10427 10425 10422 10416 10418 10415 10417 10417 10419 10424 10433 10441 10448 10455
10587 10583 10581 10576 10571 10567 10563 10558 10552 10549 10546 10536 10528 10521 10515 10510 10504 10497 10491 10486 10479 10473 10467 10461 10455 10449 10443 10437 10432 10429 10424 10418 10416 10411 10406 10408 10409 10406 10408 10409 10415 10421 10428 10434 10441
10572 10570 10567 10562 10556 10553 10548 10543 10537 10533 10532 10522 10514 10508 10503 10497 10492 10485 10479 10471 10465 10460 10454 10448 10441 10436 10430 10424 10419 10415 10409 10406 10405 10401 10397 10397 10401 10399 10397 10400 10404 10410 10417 10422 10427
10557 10555 10551 10547 10542 10537 10533 10528 10522 10518 10516 10512 10503 10497 10491 10483 10480 10472 10465 10458 10453 10447 10441 10435 10427 10422 10418 10410 10406 10401 10395 10392 10390 10390 10387 10385 10392 10390 10390 10389 10392 10398 10404 10410 10416
10541 10537 10534 10530 10526 10521 10517 10512 10506 10501 10496 10495 10492 10485 10478 10471 10464 10458 10450 10444 10439 10434 10427 10418 10414 10407 10400 10394 10388 10388 10380 10376 10375 10376 10377 10372 10377 10382 10378 10378 10380 10385 10390 10396 10402
10523 10520 10516 10513 10509 10505 10500 10494 10488 10482 10479 10476 10475 10469 10464 10457 10450 10443 10437 10430 10424 10419 10413 10401 10396 10391 10385 10378 10372 10368 10364 10359 10359 10359 10363 10358 10361 10371 10366 10364 10367 10371 10376 10381 10386
10506 10502 10498 10495 10491 10487 10482 10474 10469 10467 10464 10462 10456 10450 10446 10441 10434 10427 10421 10415 10408 10403 10397 10390 10379 10373 10366 10359 10354 10349 10345 10341 10341 10341 10345 10346 10348 10353 10353 10351 10352 10355 10359 10364 10368
10486 10484 10481 10476 10472 10468 10461 10458 10457 10452 10445 10442 10437 10433 10427 10422 10417 10411 10406 10398 10391 10382 10376 10372 10366 10355 10349 10341 10337 10332 10326 10321 10318 10322 10327 10331 10336 10335 10335 10335 10335 10336 10339 10344 10348
10467 10464 10461 10456 10452 10447 10444 10444 10438 10433 10427 10421 10416 10414 10408 10401 10396 10391 10384 10380 10371 10361 10353 10349 10350 10340 10332 10323 10317 10314 10307 10303 10301 10303 10306 10312 10317 10318 10316 10315 10316 10318 10321 10323 10327
10446 10443 10439 10435 10430 10431 10429 10423 10418 10413 10407 10403 10397 10393 10387 10380 10374 10367 10364 10360 10349 10339 10330 10327 10321 10320 10311 10303 10297 10291 10288 10284 10280 10280 10284 10294 10297 10297 10296 10295 10296 10299 10301 10302 10305
10423 10421 10418 10417 10414 10413 10411 10404 10398 10392 10388 10383 10377 10371 10366 10357 10351 10345 10340 10333 10326 10316 10309 10301 10297 10295 10287 10281 10274 10270 10268 10263 10259 10259 10262 10268 10275 10277 10274 10274 10274 10275 10278 10280 10282
10404 10405 10401 10398 10396 10391 10387 10380 10378 10373 10367 10361 10356 10350 10343 10335 10329 10322 10317 10306 10299 10292 10283 10275 10270 10269 10260 10256 10252 10247 10244 10240 10236 10239 10236 10238 10255 10250 10248 10249 10249 10249 10250 10254 10258
10382 10382 10380 10376 10374 10366 10363 10360 10357 10351 10344 10339 10335 10328 10320 10313 10302 10301 10293 10283 10274 10263 10255 10248 10244 10238 10235 10230 10226 10223 10222 10217 10212 10213 10216 10209 10228 10225 10220 10218 10219 10220 10223 10227 10233
10361 10360 10357 10350 10349 10344 10340 10340 10334 10326 10320 10316 10313 10303 10294 10288 10281 10273 10267 10258 10246 10234 10226 10218 10215 10208 10205 10203 10201 10200 10197 10192 10187 10186 10185 10191 10193 10198 10190 10189 10188 10190 10197 10204 10207
10337 10335 10333 10329 10325 10321 10317 10319 10308 10302 10298 10293 10290 10276 10271 10265 10254 10248 10239 10226 10216 10206 10199 10190 10187 10181 10177 10173 10173 10177 10171 10168 10163 10155 10154 10167 10166 10171 10157 10158 10165 10170 10173 10179 10183
10308 10308 10306 10305 10302 10298 10293 10292 10284 10278 10275 10271 10262 10254 10249 10239 10227 10222 10209 10198 10188 10178 10169 10162 10160 10154 10156 10147 10146 10155 10147 10139 10134 10129 10131 10130 10149 10129 10128 10131 10133 10136 10139 10144 10149
10283 10284 10278 10283 10278 10272 10268 10265 10261 10254 10252 10247 10236 10229 10223 10211 10202 10193 10183 10170 10160 10150 10142 10138 10130 10128 10133 10123 10121 10135 10121 10117 10109 10098 10102 10106 10114 10107 10105 10097 10097 10100 10108 10117 10118